Regional Weather Roundup
Issued by NWS Wakefield, VA

Home | Current Version | Previous Version | Graphics & Text | Print | Product List | Glossary On
Versions: 1 2 3 4 5 6 7 8 9 10 11 12 13 14 15 16 17 18 19 20 21 22 23 24 25 26 27 28 29 30 31 32 33 34 35 36 37 38 39 40 41 42 43 44 45 46 47 48 49 50
000
ASUS41 KAKQ 170210
RWRAKQ

REGIONAL WEATHER ROUNDUP
NATIONAL WEATHER SERVICE WAKEFIELD VA
1000 PM EDT TUE SEP 16 2014

Note: "fair" indicates few or no clouds below 12,000 feet with no
significant weather and/or obstructions to visibility. * = Denotes
station may not report precipitation (e.g., rain,snow,etc.),
thunder or fog.

VAZ042-051-052>054-056-170300-
NORTHERN VIRGINIA

CITY           SKY/WX    TMP DP  RH WIND       PRES   REMARKS
WASH NATIONAL  PTCLDY    68  52  56 NE6       30.03R
DULLES         CLEAR     61  51  70 CALM      30.04R
FORT BELVOIR   CLEAR     60  54  83 SW1       30.03R
QUANTICO       PTCLDY    66  52  60 N8        30.04R
FREDERICKSBRG* MOCLDY    65  56  72 N3        30.02R
STAFFORD*      PTCLDY    64  54  70 CALM      30.07R
WARRENTON      CLEAR     57  56  98 CALM      30.04R
CULPEPER*      CLEAR     57  54  88 CALM      30.05R
MANASSAS*      CLEAR     57  55  94 CALM      30.04R
LEESBURG*      CLEAR     59  54  82 N5        30.05S
WINCHESTER     CLEAR     55  50  82 CALM      30.06R
FRONT ROYAL*   PTCLDY    57  50  77 CALM      30.05S
LURAY*         PTCLDY    61  50  67 N5        30.06R
$$

VAZ048-049-060>072-079>083-170300-
CENTRAL AND SOUTH CENTRAL VIRGINIA...AND NORTH CENTRAL NORTH CAROLINA

CITY           SKY/WX    TMP DP  RH WIND       PRES   REMARKS
RICHMOND       MOCLDY    70  58  65 N3        30.00R
CHESTERFIELD*  CLOUDY    70  52  52 CALM      30.02R
PETERSBURG*    PTCLDY    68  60  75 NE5       30.00S
HANOVER        CLOUDY    67  58  72 CALM      30.02R
TAPPAHANNOCK*  MOCLDY    63  59  86 CALM      30.02R
CHARLOTTSVILLE CLOUDY    67  54  63 N5        30.03R
ORANGE*        PTCLDY    63  52  67 CALM      30.05R
LOUISA*        CLOUDY    66  55  68 CALM      30.02R
FARMVILLE*     PTCLDY    68  57  68 CALM      30.00R
CREWE*         CLOUDY    71  62  74 NE3       30.00S
FORT PICKETT*  CLOUDY    67  63  86 NE3       30.01R
LUNENBURG*     CLOUDY    71  64  80 NE3       30.00R
SOUTH HILL*    CLOUDY    72  70  94 N5        30.05R
LAWRENCEVILLE* CLOUDY    69  64  82 N3        30.00R
ROANOKE RAPIDS CLOUDY    66  64  94 CALM      29.98R
RALEIGH        CLOUDY    72  66  81 CALM      29.99R
$$

VAZ088>098-170300-
SOUTHEAST VIRGINIA

CITY           SKY/WX    TMP DP  RH WIND       PRES   REMARKS
NORFOLK        CLOUDY    73  59  61 NE9       29.98S
VIRGINIA BEACH MOCLDY    71  61  70 NE7       29.98R
NORFOLK NAVAL  MOCLDY    74  60  61 NE12      30.00R
WEST POINT*    PTCLDY    67  63  86 CALM      30.01S
NEWPORT NEWS   LGT RAIN  72  66  81 NW5       30.00R
LANGLEY AFB    CLOUDY    70  68  94 NE8       29.98S
FORT EUSTIS    LGT RAIN  69  69 100 N2        29.98S
WILLIAMSBURG*  CLOUDY    72  66  83 CALM      30.00S
HR EXEC AP*    CLOUDY    66  63  88 CALM      30.00S
FRANKLIN*        N/A     70  64  83 NE5       29.99R
WAKEFIELD      PTCLDY    69  62  78 VRB3      29.99S
$$

VAZ020-022-025-037-045-170300-
WEST CENTRAL AND SOUTHWEST VIRGINIA

CITY           SKY/WX    TMP DP  RH WIND       PRES   REMARKS
STAUNTON*      CLOUDY    65  49  57 N5        30.08R
HOT SPRINGS VA MOCLDY    51  38  60 NW8       30.14S
LYNCHBURG      MOCLDY    66  58  75 NE7       30.04R
DANVILLE       MOCLDY    66  64  93 CALM      29.99S
SOUTH BOSTON*  NOT AVBL
MARTINSVILLE   PTCLDY    64  64 100 CALM      30.04S FOG
ROANOKE        CLEAR     66  55  67 N5        30.05R
BLACKSBURG     MOCLDY    63  57  82 N3        30.10R
DUBLIN*        PTCLDY    62  58  85 N5        30.09S
MARION*        MOCLDY    60  58  94 CALM      30.11R
HILLSVILLE*    CLOUDY    60  57  89 NE6       30.09R
RICHLANDS*     CLOUDY    63  59  88 CALM      30.10S
WISE*          CLOUDY    59  59 100 N6        30.11S
ABINGDON*      PTCLDY    62  60  94 CALM      30.07S
$$

MDZ021>025-VAZ099-100-170300-
SOUTHERN MARYLAND AND THE DELMARVA PENINSULA

CITY           SKY/WX    TMP DP  RH WIND       PRES   REMARKS
PATUXENT RIVER PTCLDY    68  54  60 NE7       30.01R
BAY BRIDGE APT   N/A     66  52  59 NE5       30.02S
LEONARDTOWN    MOCLDY    63  54  72 CALM      30.03R
DOVER          CLEAR     60  55  83 N8        30.00R
GEORGETOWN     CLEAR     64  56  75 VRB6      30.01S
EASTON         NOT AVBL
CAMBRIDGE      CLEAR     63  55  77 CALM      30.01S
SALISBURY      CLEAR     64  57  78 CALM      30.01R
OCEAN CITY     CLEAR     63  57  81 N5        30.00S
WALLOPS ISLAND CLEAR     66  59  78 N6        30.01R
ACCOMACK*      PTCLDY    63  57  82 NE5       30.00R
$$

NCZ012>017-030>032-170300-
EASTERN NORTH CAROLINA

CITY           SKY/WX    TMP DP  RH WIND       PRES   REMARKS
ELIZABETH CITY CLEAR     70  65  84 E7        29.98R
AHOSKIE*       CLOUDY    67  65  94 CALM      29.98R
EDENTON*       CLEAR     68  64  88 E3        29.97S
CURRITUCK*     CLEAR     72  62  71 E5        29.99R
KILL DEVIL HLS CLEAR     72  63  72 E7        29.97R
MANTEO         CLEAR     72  62  70 NE8       29.98R
CAPE HATTERAS  RAIN      71  71 100 NE7       29.98R FOG
TARBORO*       CLOUDY    68  67  95 CALM      29.98R
GOLDSBORO      CLOUDY    74  72  93 CALM      29.94S
WASHINGTON     PTCLDY    70  67  92 CALM      29.97S
GREENVILLE     CLOUDY    70  70 100 CALM      29.98S
NEW BERN       MOCLDY    74  70  87 CALM      29.97R
WILMINGTON     PTCLDY    74  71  91 S3        29.95F
$$

VAZ048-170300-
ELSEWHERE

CITY           SKY/WX    TMP DP  RH WIND       PRES   REMARKS
HARRISBURG PA  PTCLDY    60  52  74 CALM      30.03S
BALTIMORE      PTCLDY    60  53  77 CALM      30.03R
ANNAPOLIS      CLEAR     67  56  67 N5        30.02S
ANDREWS AFB    CLEAR     61  52  72 NE6       30.02S
WILMINGTON DE  CLEAR     61  55  81 N6        30.03R
PHILADELPHIA   PTCLDY    66  50  56 N9        30.03R
WILDWOOD NJ*   PTCLDY    63  55  77 N5        30.02R
ATLANTIC CITY  PTCLDY    60  58  92 CALM      30.02R
HENDERSON NC   CLOUDY    70  66  88 CALM      29.99S
GREENSBORO     MOCLDY    70  66  87 E9        29.98F
ROCKY MOUNT    CLOUDY    69  67  93 CALM      29.98R
FAYETTEVILLE   MOCLDY    73  69  87 N6        29.97R
CHARLOTTE      TSTM      69  66  90 NE5       30.00R
$$

VAZ100-170300-
MARINE

STATION/POSITION TIME  TEMP    WIND        PRES    WAVE   SWELL
                       AIR SEA DIR/SP/G            HT/PER HT/PER
                 (UTC) (F)     (DEG/KT/KT) (MB)    (FT/S) (FT/S)
44066 TX TWR #4  0200   67 74   30/  6/ 10 1015.2R   2/14   2/14
CAPE MAY NJ      0200   67 76   50/  2/  4 1015.7R
LEWES DE         0200   71 73   30/ 10/ 11 1015.7R
15NM E FENWICK I 0200   70 72              1015.6R   2/ 4
OCEAN-CITY-INLET 0200   70 72   10/  7/  8 1015.3S
WACHAPREAGUE VA  0200   69 76  330/  3/  5 1015.6R
THOMAS POINT MD  0200   70 75   10/ 11/ 12 1017.4R
GOOSES REEF MD   0200   71      70/ 12/ 14 1016.7F
COVE POINT MD    0200   70      50/ 11/ 15 1016.1R
SOLOMONS ISLAND  0200      76                N/A
BISHOPS HEAD MD  0200   70 74   30/  9/ 14 1015.7R
PINEY POINT MD   0200           50/  5/  6   N/A
POTOMAC MD       0200   73      40/ 12/ 14 1015.3R
CAMBRIDGE MD     0200   69 75   20/  7/  8 1016.0R
LEWISETTA VA     0200   72 75   30/  8/ 12 1015.6R
RAPPAHANNOCK LGT 0200           20/ 12/ 14 1016.0S
STINGRAY PT      0200   74      50/ 12/ 16   N/A
YORK RVR RNG VA  0200   74      50/ 13/ 15 1014.9R
YORKTOWN VA      0200   72 77   30/  5/  6 1015.3R
JAMESTOWN VA     0200   71      90/  4/  6   N/A
DOMINION TERM VA 0200   73      20/  4/  7 1015.1F
KIPTOPEKE VA     0200      79   40/  4/  5   N/A
CHES BAY BRIDGE  0200   73 76   30/ 13/ 16 1014.7S
CAPE HENRY VA    0200   74      30/ 12/ 15 1014.0S
CHESAPEAKE LGHT  0100   74      30/ 12/ 13 1015.7R
WILLOUBY STN VA  0200   73      50/ 12/ 14 1014.0S
S CRANEY ISL VA  0200           20/ 11/ 13 1014.8S
CAPE HENRY BUOY  0200      76                N/A     2/13   2/13
1ST LANDING BUOY 0200   74      40/ 12/ 14 1014.8F
CAPE CHARLES BUO 0200      75                N/A     2/13   2/13
OFFSHORE WE BUOY 0200      75                N/A     2/13   2/13
64NM E OF VA BCH 0200   75 79   40/ 10/ 14 1014.7F   3/13   2/13
DUCK PIER NC     0200   74 77   70/ 12/ 14 1014.5R
44100 DUCK FRF   0200      75                N/A     2/13   2/13
44056 DUCK FRF   0200                        N/A     2/13   2/13
OREGON INLET NC  0200   74 76   60/  8/ 11 1014.9R
HATTERAS NC      0200   74 80   20/ 10/ 17 1015.4R
DIAMOND SHLS NC  0200   77     280/  2/  6 1014.6R   2/12   2/12
CAPE LOOKOUT NC  0100   78     200/  5/  6 1014.5R
$$


USA.gov is the U.S. government's official web portal to all federal, state and local government web resources and services.